Colorado Springs, CO

8:53 PM MST on January 18, 2017 (GMT -0700)
City Of Colorado Springs Municipal

Weather History for KCOS - March, 2014

Change the Weather History Date:

Wednesday, March 12, 2014

  Actual Average Record
Temperature  
Mean Temperature 33 °F 38 °F  
Max Temperature 50 °F 51 °F 72 °F (1916)
Min Temperature 16 °F 25 °F -11 °F (1956)
Degree Days  
Heating Degree Days 32 27  
Month to date heating degree days 325 340  
Since 1 July heating degree days 4812 4903  
Cooling Degree Days 0 0  
Month to date cooling degree days 0 0  
Year to date cooling degree days 0 0  
Moisture  
Dew Point 9 °F    
Average Humidity 46    
Maximum Humidity 74    
Minimum Humidity 18    
Precipitation  
Precipitation 0.00 in 0.03 in 0.53 in (1917)
Month to date precipitation 0.32 0.33  
Year to date precipitation 1.21 0.99  
Snow  
Snow 0.00 in 0.30 in 7.00 in (1917)
Month to date snowfall 1.8 2.9  
Since 1 July snowfall 25.9 26.9  
Snow Depth 0.00 in    
Sea Level Pressure  
Sea Level Pressure 30.38 in    
Wind  
Wind Speed 6 mph (NNW)    
Max Wind Speed 13 mph    
Max Gust Speed 16 mph    
Visibility 10 miles    
Events      
T = Trace of Precipitation, MM = Missing Value Source: NWS Daily Summary

Daily Weather History Graph

Daily Weather History Graph

Search for Another Location

Airport or City:

Trip Planner

Search our weather history database for the weather conditions in past years. The results will help you decide how hot, cold, wet, or windy it might be!

Date:

Astronomy

Mar. 12, 2014 Rise Set
Actual Time 7:14 AM MDT 7:02 PM MDT
Civil Twilight 6:48 AM MDT 7:29 PM MDT
Nautical Twilight 6:17 AM MDT 8:00 PM MDT
Astronomical Twilight 5:46 AM MDT 8:31 PM MDT
Moon 3:37 PM MDT (3/12) 4:46 AM MDT (3/12)
Length of Visible Light 12h 41m
Length of Day
11h 48m
Waxing Gibbous, 86% of the Moon is Illuminated
Mar 12
Waxing Gibbous
Mar 16
Full
Mar 23
Last Quarter
Mar 30
New
Apr 7
First Quarter

Hourly Weather History & Observations

Time (MDT) Temp. Windchill Dew Point Humidity Pressure Visibility Wind Dir Wind Speed Gust Speed Precip Events Conditions
12:54 AM 21.9 °F 11.0 °F 12.9 °F 68% 30.44 in 10.0 mi North 10.4 mph - N/A   Clear
1:54 AM 21.0 °F 11.4 °F 12.0 °F 68% 30.44 in 10.0 mi North 8.1 mph - N/A   Partly Cloudy
2:54 AM 19.0 °F 10.0 °F 10.9 °F 71% 30.44 in 10.0 mi NNW 6.9 mph - N/A   Partly Cloudy
3:54 AM 18.0 °F 6.9 °F 10.9 °F 74% 30.44 in 10.0 mi North 9.2 mph - N/A   Clear
4:54 AM 19.9 °F 14.9 °F 10.9 °F 68% 30.44 in 10.0 mi WNW 3.5 mph - N/A   Clear
5:54 AM 19.9 °F 12.1 °F 10.0 °F 65% 30.47 in 10.0 mi NNW 5.8 mph - N/A   Clear
6:54 AM 19.9 °F 13.4 °F 9.0 °F 62% 30.48 in 10.0 mi NNW 4.6 mph - N/A   Clear
7:54 AM 18.0 °F 12.7 °F 9.0 °F 68% 30.49 in 10.0 mi North 3.5 mph - N/A   Clear
8:54 AM 27.0 °F 23.0 °F 14.0 °F 58% 30.47 in 10.0 mi NNE 3.5 mph - N/A   Clear
9:54 AM 30.0 °F 26.5 °F 10.0 °F 43% 30.47 in 10.0 mi Variable 3.5 mph - N/A   Clear
10:54 AM 32.0 °F 28.7 °F 10.9 °F 42% 30.46 in 10.0 mi WSW 3.5 mph - N/A   Clear
11:54 AM 36.0 °F - 10.0 °F 34% 30.42 in 10.0 mi Calm Calm - N/A   Clear
12:54 PM 39.9 °F 37.8 °F 7.0 °F 26% 30.40 in 10.0 mi Variable 3.5 mph - N/A   Partly Cloudy
1:54 PM 45.0 °F 40.6 °F 8.1 °F 22% 30.34 in 10.0 mi SSW 8.1 mph - N/A   Partly Cloudy
2:54 PM 48.0 °F - 8.1 °F 20% 30.29 in 10.0 mi SW 9.2 mph - N/A   Partly Cloudy
3:54 PM 48.0 °F - 7.0 °F 19% 30.29 in 10.0 mi South 3.5 mph - N/A   Clear
4:54 PM 48.0 °F - 7.0 °F 19% 30.26 in 10.0 mi SE 9.2 mph - N/A   Clear
5:54 PM 48.0 °F - 6.1 °F 18% 30.25 in 10.0 mi SSE 11.5 mph - N/A   Clear
6:54 PM 43.0 °F 38.2 °F 6.1 °F 22% 30.27 in 10.0 mi SSE 8.1 mph - N/A   Clear
7:54 PM 39.9 °F 33.9 °F 5.0 °F 23% 30.32 in 10.0 mi SE 9.2 mph - N/A   Clear
8:54 PM 37.0 °F 31.6 °F 5.0 °F 26% 30.30 in 10.0 mi SE 6.9 mph - N/A   Clear
9:54 PM 32.0 °F - 5.0 °F 32% 30.31 in 10.0 mi Calm Calm - N/A   Clear
10:54 PM 37.9 °F 34.4 °F 3.0 °F 23% 30.26 in 10.0 mi SSE 4.6 mph - N/A   Clear
11:54 PM 25.0 °F 19.3 °F 8.1 °F 49% 30.29 in 10.0 mi North 4.6 mph - N/A   Clear